Regional Weather Roundup
Issued by NWS

Home | Current Version | Previous Version | Text Only | Print | Product List | Glossary Off
Versions: 1 2 3 4 5 6 7 8 9 10 11 12 13 14 15 16 17 18 19 20 21 22 23 24 25 26 27 28 29 30 31 32 33 34 35 36 37 38 39 40 41 42 43 44 45 46 47 48 49 50

526
ASUS43 KDTX 311301
RWRMI
MICHIGAN HOURLY REGIONAL WEATHER ROUNDUP
NATIONAL WEATHER SERVICE DETROIT/PONTIAC MI
900 AM EDT TUE MAY 31 2016

NOTE: "FAIR" INDICATES FEW OR NO CLOUDS BELOW 12,000 FEET WITH NO
SIGNIFICANT WEATHER AND/OR OBSTRUCTION TO VISIBILITY.

MIZ047>049-052>055-059>063-066>070-074>076-081>083-311400-
SOUTHEAST LOWER MICHIGAN

CITY           SKY/WX    TMP DP  RH WIND       PRES   REMARKS
ADRIAN         CLOUDY    72  53  51 NE6       30.05R
ALMA           SUNNY     65  52  62 NE6       30.08R
ANN ARBOR      SUNNY     71  55  56 NE7       30.04R
BAD AXE        SUNNY     65  55  70 N7        30.08R
CARO           SUNNY     68  56  64 N6        30.06R
DETROIT CITY   SUNNY     71  54  54 NE8       30.04R
DETROIT        PTSUNNY   72  56  57 N7        30.04S
FLINT          SUNNY     70  54  56 CALM      30.06R
GROSSE ILE     SUNNY     72  57  60 NE8       30.02R
HILLSDALE      MOSUNNY   71  46  41 E5        30.05S
HOWELL         SUNNY     68  54  60 NE3       30.06R

CITY           SKY/WX    TMP DP  RH WIND       PRES   REMARKS
JACKSON        CLOUDY    69  52  54 E3        30.06R
LAMBERTVILLE   CLOUDY    72  56  58 E3        30.03S
LANSING        SUNNY     69  54  58 E6        30.06S
LAPEER         FAIR      67  55  66 CALM      30.06S
MASON          SUNNY     68  54  59 E5        30.06S
MONROE         SUNNY     72  58  62 NE5       30.02S
PONTIAC        MOSUNNY   72  48  42 NE8       30.05R
PORT HOPE        N/A     63  57  81 VRB3      30.07R
PORT HURON     SUNNY     68  57  68 CALM      30.05R
TRI CITIES     SUNNY     68  55  63 NE10      30.07R
MIDLAND        FAIR      66  53  62 NE6       30.07R
TROY           SUNNY     72  52  48 NE7       30.07R
SAGINAW HB     SUNNY     68  55  64 NE7       30.06R
$$
MIZ043>046-050>051-056>058-064>065-071>073-077>080-311400-
SOUTHWEST LOWER MICHIGAN

CITY           SKY/WX    TMP DP  RH WIND       PRES   REMARKS
BATTLE CREEK   SUNNY     70  52  52 E3        30.06R
BENTON HARBOR  MOSUNNY   71  53  52 E8        30.03R
BIG RAPIDS     SUNNY     63  56  78 CALM      30.07R
COLDWATER      MOSUNNY   70  52  52 E3        30.06R
FREMONT        FAIR      65  54  65 CALM      30.06S
HOLLAND        SUNNY     70  55  59 E6        30.06R
GRAND RAPIDS   MOSUNNY   70  54  56 E5        30.07R
IONIA          FAIR      66  53  62 NE5       30.06R
KALAMAZOO      SUNNY     71  53  52 CALM      30.06R
LUDINGTON      SUNNY     64  55  72 E5        30.07S
MARSHALL       SUNNY     69  54  57 CALM      30.06R
MOUNT PLEASANT SUNNY     65  54  68 E3        30.07R
MUSKEGON       MOSUNNY   69  52  54 E3        30.06R
SOUTH HAVEN    SUNNY     69  55  59 E6        30.04S
$$
MIZ016>042-311400-
NORTHERN LOWER MICHIGAN

CITY           SKY/WX    TMP DP  RH WIND       PRES   REMARKS
ALPENA         SUNNY     59  49  69 N10       30.10R
BEAVER ISLAND  PTSUNNY   52  44  74 NE8       30.12S
BELLAIRE       SUNNY     58  49  71 NE5       30.10S
CADILLAC       SUNNY     62  52  71 NE6       30.08S
CHARLEVOIX     MOSUNNY   53  48  82 N7        30.14S
FRANKFORT      SUNNY     60  52  74 E3        30.08S
GAYLORD        MOSUNNY   58  47  66 NE7       30.10R
GRAYLING       CLOUDY    60  51  72 NE3       30.10R
HARBOR SPRINGS PTSUNNY   55  47  74 E7        30.11S
HOUGHTON LAKE  SUNNY     63  50  62 NE10      30.09S
OSCODA         MOSUNNY   64  52  65 N5        30.07R
PELLSTON       PTSUNNY   55  44  66 N7        30.12R
ROGERS CITY    PTSUNNY   52  47  83 NW8       30.13R
TRAVERSE CITY  MOSUNNY   58  50  75 N7        30.08S
$$
MIZ007>008-015-311400-
EASTERN UPPER MICHIGAN

CITY           SKY/WX    TMP DP  RH WIND       PRES   REMARKS
KINROSS          N/A     52  43  71 NE6       30.13R
MACKINAC ISLAN CLOUDY    50  45  82 NE3       30.12R
NEWBERRY       SUNNY     50  42  75 N7        30.14R
S. S. MARIE    SUNNY     53  40  61 NE8       30.12R
MUNISING         N/A     48  43  82 NE8       30.13F
$$
MIZ004>006-011>014-085-311400-
CENTRAL UPPER MICHIGAN

CITY           SKY/WX    TMP DP  RH WIND       PRES   REMARKS
MANISTIQUE     CLOUDY    51  43  74 NE12      30.11F
ESCANABA       SUNNY     52  43  71 E7        30.12S
MENOMINEE      MOSUNNY   52  47  83 E17       30.08F
SAWYER-GWINN   PTSUNNY   46  39  76 NE9       30.13S
$$
MIZ001>003-009>011-084-311400-
WESTERN UPPER MICHIGAN

CITY           SKY/WX    TMP DP  RH WIND       PRES   REMARKS
IRON MOUNTAIN  PTSUNNY   51  42  71 NE9       30.07F
HOUGHTON       RAIN      43  40  89 E13       30.11S FOG
COPPER HARBOR    N/A     48  41  76 VRB6      30.14S
IRONWOOD       CLOUDY    54  48  82 SE9       29.98
$$

ABBREVIATIONS USED IN REMARKS
   TC - TEMPERATURE IN CELSIUS
  WCI - WIND CHILL INDEX
   HX - HEAT INDEX
  VSB - VISIBILITY





USA.gov is the U.S. government's official web portal to all federal, state and local government web resources and services.